Location: Unspecified
(58.9933°N, 5.6375°E)
Time: 15:05:08
(UTC+02:00)

Cosmos 2058 - Pass Details

Date: 25 January 2018
Orbit: 564 x 584 km, 82.5° (Epoch: 21 May)

Event Time Altitude Azimuth Distance (km) Brightness Sun altitude
Rises 21:36:37 0° 262° (W) 2,810 7.1 -36.9°
Reaches altitude 10° 21:40:46 10° 302° (WNW) 1,918 6.3 -37.4°
Maximum altitude 21:41:40 11° 315° (NW) 1,882 6.2 -37.5°
Drops below altitude 10° 21:42:35 10° 327° (NNW) 1,921 6.2 -37.6°
Enters shadow 21:42:40 10° 328° (NNW) 1,928 6.2 -37.6°
